User: anonymous   Login
Location: Unspecified
(0.0000°N, 0.0000°E)
Time: 11:56:08
(UTC+00:00)
Language:

Vanguard 3 - Orbit

View from above orbital plane
View from above orbital plane
View from above satellite
View from above satellite

Ground track
Ground track

The orbit data is extracted from the following two-line orbital elements,

1 00020U 59007A   16236.79835771  .00000412  00000-0  17813-3 0  9998
2 00020  33.3421 105.7086 1667003  75.7282 302.2056 11.55241268 69391
Epoch (UTC): 23 August 2016 19:09:38
Eccentricity: 0.1667003
inclination: 33.3421°
perigee height: 510 km
apogee height: 3265 km
right ascension of ascending node: 105.7086°
argument of perigee: 75.7282°
revolutions per day: 11.55241268
mean anomaly at epoch: 302.2056°
orbit number at epoch: 6939

The dashed part of the orbit path shows where the satellite is in the earth's shadow,  

DLR